Location: Mannheim
(49.4880°N, 8.4650°E)
Time: 19:58:01
(UTC+02:00)

ISS - Visible Passes

Search period start: 21 September 2018 00:00
Search period end: 01 October 2018 00:00
Orbit: 403 x 408 km, 51.6° (Epoch: 21 September)

Date Brightness Start Highest point End Pass type
(mag) Time Alt. Az. Time Alt. Az. Time Alt. Az.
21 Sep -1.1 21:17:48 10° SSW 21:17:51 10° SSW 21:17:51 10° SSW visible
22 Sep -1.9 20:26:59 10° S 20:28:47 14° SE 20:28:51 14° SE visible
22 Sep -0.8 22:01:32 10° WSW 22:01:34 10° WSW 22:01:34 10° WSW visible
23 Sep -2.9 21:09:53 10° SW 21:12:20 35° S 21:12:20 35° S visible
24 Sep -2.6 20:18:27 10° SSW 20:21:16 26° SE 20:22:54 18° E visible
24 Sep -1.6 21:54:14 10° WSW 21:55:36 23° WSW 21:55:36 23° WSW visible
25 Sep -3.9 21:02:22 10° WSW 21:05:40 73° SSE 21:06:00 64° ESE visible
26 Sep -3.5 20:10:37 10° SW 20:13:48 48° SSE 20:16:18 15° E visible
26 Sep -2.0 21:47:01 10° W 21:48:59 32° W 21:48:59 32° W visible
27 Sep -3.8 20:55:03 10° W 20:58:21 75° NNW 20:59:10 47° ENE visible
27 Sep -0.3 22:31:47 10° WNW 22:31:50 10° WNW 22:31:50 10° WNW visible
28 Sep -3.9 20:03:06 10° WSW 20:06:25 83° SSE 20:09:17 13° ENE visible
28 Sep -2.2 21:39:48 10° W 21:41:57 35° WNW 21:41:57 35° WNW visible
29 Sep -3.5 20:47:47 10° W 20:51:03 59° N 20:52:00 39° NE visible
29 Sep -0.4 22:24:28 10° WNW 22:24:40 11° WNW 22:24:40 11° WNW visible
30 Sep -3.6 19:55:45 10° W 19:59:03 69° NNW 20:02:01 12° ENE visible
30 Sep -2.3 21:32:29 10° WNW 21:34:41 37° WNW 21:34:41 37° WNW visible
